CW7834 Weather Reports


time (UTC)temp
C
wind
direction
speed
KPH
gust
KPH
rain 1hr
cm
rain 24hr
cm
rain mn
cm
humidity
%
barometer
mb
20260506134738 14 250 1.6 8.0 0.00 0.00 0.20 90
20260506133738 14 225 1.6 8.0 0.00 0.00 0.18 89
20260506132738 15 254 4.8 11.3 0.00 0.00 0.15 88
20260506131738 15 261 3.2 11.3 0.00 0.00 0.13 87
20260506130738 15 246 1.6 11.3 0.00 0.00 0.08 87
20260506125738 15 200 3.2 16.1 0.00 0.00 0.05 86
20260506124738 15 188 4.8 14.5 0.00 0.00 0.03 86
20260506123738 13 212 1.6 8.0 0.00 0.00 0.00 86
20260506122738 13 186 0.0 0.0 0.00 0.00 0.00 85
20260506121738 13 186 0.0 0.0 0.00 0.00 0.00 84
20260506120738 13 186 0.0 0.0 0.00 0.00 0.00 82
20260506115738 13 186 0.0 0.0 0.00 0.00 0.00 83
20260506114737 13 186 0.0 0.0 0.00 0.00 0.00 83
20260506113737 13 186 0.0 0.0 0.00 0.00 0.00 83
20260506112738 12 186 0.0 0.0 0.00 0.00 0.00 83
20260506111738 12 186 0.0 0.0 0.00 0.00 0.00 83
20260506110738 12 186 0.0 0.0 0.00 0.00 0.00 83
20260506105738 12 186 0.0 0.0 0.00 0.00 0.00 83
20260506104737 12 186 0.0 1.6 0.00 0.00 0.00 83
20260506103739 12 186 0.0 1.6 0.00 0.00 0.00 82
20260506102737 12 186 1.6 3.2 0.00 0.00 0.00 82
20260506101738 12 186 1.6 1.6 0.00 0.00 0.00 82
20260506100738 12 179 0.0 0.0 0.00 0.00 0.00 82
20260506095737 12 182 0.0 0.0 0.00 0.00 0.00 83
20260506094737 12 182 0.0 0.0 0.00 0.00 0.00 83
20260506093737 12 182 0.0 0.0 0.00 0.00 0.00 82
20260506092737 12 182 0.0 0.0 0.00 0.00 0.00 82
20260506091738 12 182 0.0 0.0 0.00 0.00 0.00 82
20260506090739 12 182 0.0 0.0 0.00 0.00 0.00 82
20260506084737 12 182 0.0 0.0 0.00 0.00 0.00 82
20260506083737 12 182 0.0 0.0 0.00 0.00 0.00 81
20260506082737 12 182 0.0 0.0 0.00 0.00 0.00 81
20260506081737 12 182 0.0 0.0 0.00 0.00 0.00 81
20260506080737 12 182 0.0 0.0 0.00 0.00 0.00 81
20260506072737 12 183 0.0 0.0 0.00 0.00 0.00 82
20260506071737 12 184 0.0 0.0 0.00 0.00 0.00 81
20260506070737 12 184 0.0 0.0 0.00 0.00 0.00 81
20260506061737 12 180 1.6 1.6 0.00 0.00 0.00 81
20260506060737 12 180 0.0 3.2 0.00 0.00 0.00 80
20260506050737 12 221 0.0 3.2 0.00 0.00 0.00 78
20260506044738 13 221 0.0 1.6 0.00 0.00 0.00 76
20260506043737 13 221 1.6 3.2 0.00 0.00 0.00 74
20260506042738 13 221 0.0 3.2 0.00 0.00 0.00 73
20260506041737 13 221 1.6 3.2 0.00 0.00 0.00 73
20260506040738 14 221 1.6 3.2 0.00 0.00 0.00 72
20260506035737 14 221 0.0 3.2 0.00 0.00 0.00 71
20260506034737 14 221 0.0 3.2 0.00 0.00 0.00 70
20260506033737 15 221 0.0 0.0 0.00 0.00 0.00 69
20260506032737 15 221 0.0 0.0 0.00 0.00 0.00 68
20260506031738 15 221 0.0 0.0 0.00 0.00 0.00 66
20260506030738 16 221 0.0 3.2 0.00 0.00 0.00 65
20260506025737 16 221 1.6 3.2 0.00 0.00 0.00 65
20260506024738 17 221 0.0 0.0 0.00 0.00 0.00 63
20260506023737 17 221 0.0 0.0 0.00 0.00 0.00 62
20260506022737 18 221 0.0 0.0 0.00 0.00 0.00 60
20260506021737 18 221 0.0 3.2 0.00 0.00 0.00 59
20260506020737 18 221 0.0 3.2 0.00 0.00 0.00 59
20260506015738 18 221 0.0 4.8 0.00 0.00 0.00 59
20260506014737 18 225 1.6 3.2 0.00 0.00 0.00 58
20260506013737 19 225 3.2 3.2 0.00 0.00 0.00 57
20260506012737 20 225 0.0 3.2 0.00 0.00 0.00 56
20260506011737 20 224 1.6 4.8 0.00 0.00 0.00 54
20260506010737 20 236 3.2 3.2 0.00 0.00 0.00 54
20260506005737 21 236 1.6 3.2 0.00 0.00 0.00 52
20260506004737 21 236 0.0 6.4 0.00 0.00 0.00 50
20260506003738 21 200 3.2 6.4 0.00 0.00 0.00 51
20260506002737 21 210 1.6 8.0 0.00 0.00 0.00 50
20260506001738 21 219 0.0 6.4 0.00 0.00 0.00 48
20260506000737 21 217 3.2 8.0 0.00 0.00 0.00 49
20260505235737 21 217 1.6 6.4 0.00 0.00 0.00 51
20260505234737 22 237 3.2 11.3 0.00 0.00 0.00 50
20260505233737 21 221 1.6 8.0 0.00 0.00 0.00 51
20260505232737 21 209 1.6 8.0 0.00 0.00 0.00 52
20260505231737 21 227 1.6 4.8 0.00 0.00 0.00 55
20260505230737 22 231 4.8 4.8 0.00 0.00 0.00 54
20260505225737 22 233 4.8 8.0 0.00 0.00 0.00 50
20260505224738 22 232 4.8 11.3 0.00 0.00 0.00 49
20260505223737 22 264 1.6 4.8 0.00 0.00 0.00 49
20260505222737 22 257 3.2 14.5 0.00 0.00 0.00 48
20260505221737 22 210 1.6 17.7 0.00 0.00 0.00 47
20260505220737 22 238 3.2 12.9 0.00 0.00 0.00 47
20260505215737 22 225 16.1 16.1 0.00 0.00 0.00 46
20260505214737 23 242 4.8 20.9 0.00 0.00 0.00 44
20260505213737 23 207 3.2 14.5 0.00 0.00 0.00 44
20260505212737 23 234 8.0 22.5 0.00 0.00 0.00 42
20260505211737 24 225 11.3 30.6 0.00 0.00 0.00 42
20260505210737 25 249 12.9 43.5 0.00 0.00 0.00 40
20260505205737 25 201 24.1 59.5 0.00 0.00 0.00 37
20260505204737 25 238 12.9 29.0 0.00 0.00 0.00 36
20260505203737 25 243 14.5 29.0 0.00 0.00 0.00 35
20260505202738 25 267 17.7 35.4 0.00 0.00 0.00 34
20260505201738 25 190 9.7 38.6 0.00 0.00 0.00 34
20260505200737 25 247 37.0 37.0 0.00 0.00 0.00 33
20260505195737 26 195 29.0 37.0 0.00 0.00 0.00 31
20260505194737 27 257 11.3 40.2 0.00 0.00 0.00 31
20260505193737 26 238 19.3 41.8 0.00 0.00 0.00 31
20260505192738 26 231 24.1 41.8 0.00 0.00 0.00 32
20260505191738 26 306 17.7 37.0 0.00 0.00 0.00 32
20260505190737 26 290 6.4 32.2 0.00 0.00 0.00 33
20260505185737 25 201 4.8 48.3 0.00 0.00 0.00 33
20260505184737 26 279 19.3 45.1 0.00 0.00 0.00 32
20260505183737 26 242 29.0 37.0 0.00 0.00 0.00 33
20260505182737 26 273 19.3 40.2 0.00 0.00 0.00 33
20260505181737 26 258 17.7 41.8 0.00 0.00 0.00 33
20260505180737 26 247 12.9 40.2 0.00 0.00 0.00 37
20260505175737 25 271 20.9 43.5 0.00 0.00 0.00 37
20260505174737 26 244 16.1 40.2 0.00 0.00 0.00 34
20260505173737 26 259 19.3 43.5 0.00 0.00 0.00 35
20260505172737 25 106 6.4 29.0 0.00 0.00 0.00 39
20260505171737 25 203 25.7 37.0 0.00 0.00 0.00 39
20260505170738 25 201 17.7 27.4 0.00 0.00 0.00 40
20260505165737 25 225 24.1 40.2 0.00 0.00 0.00 41
20260505164737 25 240 32.2 32.2 0.00 0.00 0.00 40
20260505163737 25 254 8.0 38.6 0.00 0.00 0.00 41
20260505162738 25 194 16.1 32.2 0.00 0.00 0.00 43
20260505161737 24 119 4.8 38.6 0.00 0.00 0.00 42
20260505160737 25 226 6.4 32.2 0.00 0.00 0.00 41
20260505152737 23 205 8.0 30.6 0.00 0.00 0.00 47
20260505151737 23 242 12.9 45.1 0.00 0.00 0.00 47
20260505150737 23 234 27.4 41.8 0.00 0.00 0.00 47